Showing default

PERSEUS M1, 40039

Orbit data source: Space-Track

PERSEUS M1, 40039 is a payload satellite owned by Canopus Sys (CIS) in SSO that was launched on Thu, 19 Jun 2014 UTC via a DNEPR launch vehicle from the Orenburg, Russia (OREN). Payloads include a variety of satellites, spacecraft, and rockets equipped with specific instruments for various scientific and technological missions. These include communications satellites like Starlink; space stations such as the ISS; scientific satellites like the Hubble; Earth observation satellites from companies like Planet Labs, Umbra, and HawkEye 360; GPS; miniature CubeSats for education and research; and military/defense satellites.

Loading next visibility...
PERSEUS M1 details
Identifier
40039, 2014-033AF
Orbit
SSO
Last TLE update15 hours ago
Origin
Flag of CISCanopus Sys (CIS)
ManufacturerCanopus Sys
MissionOperational Commercial Communications
Bus & MotorCUBESAT 6U, Unknown motor
Mass~10 kg wet, ~10 kg dry
Launch date (UTC)
2014-06-19 (11 years ago)
Launch vehicle
DNEPR
Launch site
Orenburg, Russia (OREN)
Object type
Payload
Rocket body
Debris
Shape & HBRBox, 0.3 m
Radar Cross Section0.105 m², Medium (>0.1 m² and < 1m²)

Expand to show TLE details & history

TLE from 15 hours ago
0 PERSEUS M1
1 40039U 14033AF  25024.39271813  .00004688  00000-0  46031-3 0  9997
2 40039  97.9202 317.8779 0012245 177.2475 182.8814 14.92615530574651
Epoch: 2025-01-24T09:25Z
Definitive object data (Epoch: 2025-01-24T09:25:30.846Z)
Latitude0.00005°
Longitude52.54283°
Altitude601.345 km
Speed7.554 km/s
True Right ascension21h 11m 30s
True Declination0° 00' 00"
Sunlit
Object was in daylight at TLE epoch
Visualization TLE readout
Latitude79.40769°
Longitude-79.11016°
Altitude601.285 km
Speed7.567 km/s
Apparent Right ascension13h 23m 03s
Apparent Declination24° 17' 18"
Sunlit
Object is in full shadow
Visualization observer readout
Local Sidereal Time01:38:10
Azimuth3.824° NNE
Elevation-25.699°
Doppler factor1
Orbital elements
Apogee altitude595.337 km
Perigee altitude578.28 km
Semi-major axis6,964.946 km
Eccentricity0.0012245
Inclination97.9202°
RAAN317.8779°
Arg. of periapsis177.2475°
True anomaly182.87436°
Mean anomaly182.8814°
Eccentric anomaly182.87788°
Mean motion3.73393 °/min
BSTAR0.00046031
Orbital period96.41 mins
Loading maneuver chart data...
Loading historical data...
Loading historical data...
Loading historical data...
Loading historical data...
Loading historical data...
Loading historical data...
Loading historical data...

PERSEUS M1 Visibility forecast

Observer location: undefined°, undefined

Span
Click to sort rows by Start time (UTC) header in descending order
Start Az.
Max El. time (UTC)
Max El. Az.
Max El.
End time (UTC)
End Az.
7 mins2025-01-25 08:30:22.201Z6.259° NNE2025-01-25 08:34:22.201Z275.506° WNW42.302°2025-01-25 08:37:22.201Z205.694° SW
6 mins2025-01-25 19:21:22.201Z157.967° S2025-01-25 19:23:22.201Z115.707° SE43.757°2025-01-25 19:27:22.201Z350.967° N
|